GW1307 Weather Reports


time (UTC)temp
C
wind
direction
speed
KPH
gust
KPH
rain 1hr
cm
rain 24hr
cm
rain mn
cm
humidity
%
barometer
mb
20260506233107 18 175 8.0 17.7 0.00 0.00 0.00 75 1017.7
20260506233008 25 44 1.6 11.3 0.00 0.00 0.00 50 1015.9
20260506231555 18 273 8.0 20.9 0.00 0.00 0.00 75 1017.7
20260506231505 25 36 1.6 4.8 0.00 0.00 0.00 50 1016.1
20260506230055 18 151 8.0 20.9 0.00 0.00 0.00 75 1018.0
20260506230008 25 37 3.2 9.7 0.00 0.00 0.00 50 1016.1
20260506224603 25 35 1.6 8.0 0.00 0.00 0.00 50 1016.2
20260506224557 19 227 9.7 20.9 0.00 0.00 0.00 74 1018.2
20260506223111 18 221 9.7 20.9 0.00 0.00 0.00 75 1018.2
20260506223002 25 42 3.2 11.3 0.00 0.00 0.00 49 1016.4
20260506221611 25 43 3.2 8.0 0.00 0.00 0.00 49 1016.6
20260506221603 19 216 8.0 19.3 0.00 0.00 0.00 73 1018.5
20260506220057 26 37 1.6 8.0 0.00 0.00 0.00 49 1016.9
20260506214609 18 189 9.7 24.1 0.00 0.00 0.00 75 1019.0
20260506214555 24 76 1.6 8.0 0.00 0.00 0.00 51 1017.1
20260506213111 23 86 0.0 6.4 0.00 0.00 0.00 52 1017.2
20260506213056 17 198 12.9 24.1 0.00 0.00 0.00 76 1019.2
20260506211605 18 201 11.3 20.9 0.00 0.00 0.00 73 1019.3
20260506211553 25 32 1.6 6.4 0.00 0.00 0.00 50 1017.4
20260506210109 18 170 11.3 22.5 0.00 0.00 0.00 75 1019.3
20260506210050 24 103 0.0 6.4 0.00 0.00 0.00 50 1017.5
20260506204558 18 219 12.9 22.5 0.00 0.00 0.00 74 1019.6
20260506204549 24 40 1.6 6.4 0.00 0.00 0.00 51 1017.6
20260506203101 18 219 9.7 24.1 0.00 0.00 0.00 75 1019.7
20260506203047 23 50 1.6 6.4 0.00 0.00 0.00 52 1017.8
20260506201558 17 221 12.9 27.4 0.00 0.00 0.00 75 1019.7
20260506201544 23 32 1.6 8.0 0.00 0.00 0.00 53 1017.8
20260506200140 17 186 11.3 22.5 0.00 0.00 0.00 75 1020.0
20260506200042 22 37 1.6 8.0 0.00 0.00 0.00 54 1017.8
20260506194617 16 186 11.3 22.5 0.00 0.00 0.00 77 1020.0
20260506194539 22 44 0.0 6.4 0.00 0.00 0.00 55 1018.0
20260506193055 16 211 11.3 19.3 0.00 0.00 0.00 77 1020.0
20260506193039 22 34 3.2 6.4 0.00 0.00 0.00 56 1018.2
20260506191600 16 232 8.0 14.5 0.00 0.00 0.00 76 1020.3
20260506191539 21 36 1.6 8.0 0.00 0.00 0.00 57 1018.5
20260506190056 16 236 11.3 22.5 0.00 0.00 0.00 79 1020.4
20260506190035 21 36 1.6 6.4 0.00 0.00 0.00 58 1018.7
20260506184556 16 196 11.3 19.3 0.00 0.00 0.00 76 1020.5
20260506184545 21 215 1.6 8.0 0.00 0.00 0.00 58 1018.7
20260506183055 16 196 9.7 19.3 0.00 0.00 0.00 78 1020.5
20260506183038 20 259 1.6 8.0 0.00 0.00 0.00 59 1018.9
20260506181553 16 207 9.7 17.7 0.00 0.00 0.00 80 1020.6
20260506181537 20 304 0.0 6.4 0.00 0.00 0.00 60 1018.9
20260506180108 15 223 11.3 17.7 0.00 0.00 0.00 80 1020.5
20260506180031 20 336 0.0 8.0 0.00 0.00 0.00 63 1018.9
20260506174555 15 189 11.3 16.1 0.00 0.00 0.00 82 1020.4
20260506174526 19 51 1.6 4.8 0.00 0.00 0.00 64 1019.0
20260506173116 15 186 9.7 16.1 0.00 0.00 0.00 81 1020.5
20260506173020 18 36 1.6 6.4 0.00 0.00 0.00 66 1019.1
20260506171601 15 239 8.0 16.1 0.00 0.00 0.00 81 1020.5
20260506171517 18 266 0.0 3.2 0.00 0.00 0.00 68 1019.1
20260506170058 16 217 6.4 12.9 0.00 0.00 0.00 81 1020.3
20260506170013 17 290 1.6 4.8 0.00 0.00 0.00 70 1019.2
20260506164556 15 162 6.4 11.3 0.00 0.00 0.00 82 1020.5
20260506164512 16 302 0.0 3.2 0.00 0.00 0.00 71 1019.2
20260506163106 15 194 6.4 11.3 0.00 0.00 0.00 81 1020.5
20260506163010 16 301 0.0 6.4 0.00 0.00 0.00 73 1019.2
20260506161559 15 165 6.4 12.9 0.00 0.00 0.00 82 1020.6
20260506161508 16 311 0.0 4.8 0.00 0.00 0.00 74 1019.3
20260506160106 15 213 6.4 11.3 0.00 0.00 0.00 82 1020.6
20260506160004 15 124 0.0 3.2 0.00 0.00 0.00 75 1019.2
20260506154555 15 128 4.8 9.7 0.00 0.00 0.00 82 1020.7
20260506154502 15 273 0.0 3.2 0.00 0.00 0.00 76 1019.3
20260506153057 14 153 6.4 11.3 0.00 0.00 0.00 83 1020.7
20260506153001 15 103 0.0 3.2 0.00 0.00 0.00 76 1019.3
20260506151559 15 260 0.0 4.8 0.00 0.00 0.00 76 1019.3
20260506151555 14 168 3.2 8.0 0.00 0.00 0.00 83 1020.6
20260506150101 14 162 3.2 8.0 0.00 0.00 0.00 84 1020.7
20260506144600 13 165 3.2 6.4 0.00 0.00 0.00 85 1020.7
20260506144558 14 35 0.0 0.0 0.00 0.00 0.00 78 1019.3
20260506143058 13 205 1.6 6.4 0.00 0.00 0.00 86 1020.8
20260506143056 14 34 0.0 0.0 0.00 0.00 0.00 78 1019.4
20260506141604 13 164 1.6 3.2 0.00 0.00 0.00 87 1020.7
20260506141553 14 13 0.0 1.6 0.00 0.00 0.00 79 1019.3
20260506140056 13 0 0.0 3.2 0.00 0.00 0.00 88 1020.5
20260506140053 14 13 0.0 0.0 0.00 0.00 0.00 78 1019.0
20260506134618 13 153 0.0 3.2 0.00 0.00 0.00 87 1020.4
20260506134551 13 15 0.0 0.0 0.00 0.00 0.00 79 1018.8
20260506133058 12 0 0.0 3.2 0.00 0.00 0.00 87 1020.2
20260506133050 13 15 0.0 0.0 0.00 0.00 0.00 79 1018.6
20260506131609 12 334 0.0 3.2 0.00 0.00 0.00 87 1020.1
20260506131554 13 15 0.0 0.0 0.00 0.00 0.00 79 1018.5
20260506130058 12 9 1.6 4.8 0.00 0.00 0.00 87 1019.8
20260506130048 13 15 0.0 0.0 0.00 0.00 0.00 78 1018.4
20260506124556 12 22 0.0 3.2 0.00 0.00 0.00 87 1019.8
20260506124547 13 15 0.0 1.6 0.00 0.00 0.00 78 1018.3
20260506123059 12 9 0.0 4.8 0.00 0.00 0.00 87 1019.7
20260506123046 13 17 0.0 1.6 0.00 0.00 0.00 78 1018.2
20260506121606 12 338 1.6 4.8 0.00 0.00 0.00 87 1019.6
20260506121544 14 17 0.0 3.2 0.00 0.00 0.00 78 1018.1
20260506120056 12 334 1.6 3.2 0.00 0.00 0.00 87 1019.6
20260506120043 14 321 0.0 0.0 0.00 0.00 0.00 78 1018.2
20260506114556 12 309 1.6 3.2 0.00 0.00 0.00 87 1019.4
20260506114544 14 321 0.0 0.0 0.00 0.00 0.00 78 1018.0
20260506113055 12 309 1.6 4.8 0.00 0.00 0.00 87 1019.4
20260506113043 14 319 0.0 3.2 0.00 0.00 0.00 78 1017.9
20260506111612 12 9 3.2 4.8 0.00 0.00 0.00 87 1019.4
20260506111540 14 317 0.0 3.2 0.00 0.00 0.00 79 1017.8
20260506110058 12 338 1.6 4.8 0.00 0.00 0.00 87 1019.2
20260506110039 14 314 0.0 0.0 0.00 0.00 0.00 79 1017.7
20260506104554 12 0 0.0 4.8 0.00 0.00 0.00 87 1019.2
20260506104538 14 313 0.0 0.0 0.00 0.00 0.00 79 1017.6
20260506103105 12 9 1.6 6.4 0.00 0.00 0.00 87 1019.2
20260506103043 14 317 0.0 0.0 0.00 0.00 0.00 79 1017.6
20260506101558 12 9 4.8 8.0 0.00 0.00 0.00 87 1019.2
20260506101536 14 317 0.0 0.0 0.00 0.00 0.00 79 1017.8
20260506100056 12 25 4.8 11.3 0.00 0.00 0.00 87 1019.1
20260506100038 14 317 0.0 1.6 0.00 0.00 0.00 79 1017.6
20260506094556 12 27 3.2 8.0 0.00 0.00 0.00 86 1019.2
20260506094538 14 309 0.0 4.8 0.00 0.00 0.00 78 1017.7
20260506093100 13 347 3.2 11.3 0.00 0.00 0.00 86 1019.3
20260506093035 14 306 0.0 1.6 0.00 0.00 0.00 78 1017.7
20260506091559 13 9 4.8 8.0 0.00 0.00 0.00 86 1019.4
20260506091535 14 14 0.0 0.0 0.00 0.00 0.00 77 1017.8
20260506090034 14 14 0.0 0.0 0.00 0.00 0.00 77 1017.5
20260506084607 13 17 4.8 8.0 0.00 0.00 0.00 86 1019.2
20260506083031 14 13 0.0 3.2 0.00 0.00 0.00 77 1017.7
20260506081555 13 9 3.2 8.0 0.00 0.00 0.00 86 1019.2
20260506081530 14 42 0.0 1.6 0.00 0.00 0.00 77 1017.6
20260506073054 13 30 1.6 4.8 0.00 0.00 0.00 85 1019.0
20260506073026 14 46 0.0 4.8 0.00 0.00 0.00 76 1017.3
20260506071557 13 344 3.2 6.4 0.00 0.00 0.00 85 1019.1
20260506071525 14 43 0.0 0.0 0.00 0.00 0.00 76 1017.2
20260506070124 13 34 1.6 4.8 0.00 0.00 0.00 85 1018.8
20260506061558 13 9 0.0 3.2 0.00 0.00 0.00 84 1018.6
20260506061519 15 15 0.0 1.6 0.00 0.00 0.00 74 1016.7
20260506050108 13 9 3.2 8.0 0.00 0.00 0.00 83 1018.2
20260506044601 13 338 4.8 12.9 0.00 0.00 0.00 82 1018.0
20260506044513 15 180 0.0 1.6 0.00 0.00 0.00 72 1016.1
20260506043058 13 336 3.2 8.0 0.00 0.00 0.00 82 1017.9
20260506043014 15 57 0.0 3.2 0.00 0.00 0.00 71 1015.9
20260506041621 13 9 4.8 12.9 0.00 0.00 0.00 82 1017.8
20260506041510 16 24 0.0 3.2 0.00 0.00 0.00 70 1015.8
20260506040059 13 321 3.2 9.7 0.00 0.00 0.00 82 1017.5
20260506040007 16 13 0.0 0.0 0.00 0.00 0.00 70 1015.7
20260506034600 14 312 4.8 8.0 0.00 0.00 0.00 82 1017.2
20260506034517 16 13 0.0 4.8 0.00 0.00 0.00 70 1015.4
20260506033054 14 311 4.8 8.0 0.00 0.00 0.00 82 1017.0
20260506033006 16 101 0.0 0.0 0.00 0.00 0.00 70 1015.2
20260506031557 14 334 6.4 12.9 0.00 0.00 0.00 82 1016.7
20260506031505 16 49 0.0 0.0 0.00 0.00 0.00 70 1015.1
20260506030054 14 319 3.2 6.4 0.00 0.00 0.00 82 1016.7
20260506030017 16 50 0.0 1.6 0.00 0.00 0.00 70 1014.8
20260506024601 14 323 1.6 4.8 0.00 0.00 0.00 82 1016.4
20260506024510 16 37 0.0 6.4 0.00 0.00 0.00 70 1014.6
20260506023056 14 279 1.6 3.2 0.00 0.00 0.00 83 1016.5
20260506023008 16 30 0.0 4.8 0.00 0.00 0.00 70 1014.6
20260506021554 14 0 0.0 3.2 0.00 0.00 0.00 83 1016.4
20260506021502 16 51 0.0 1.6 0.00 0.00 0.00 69 1014.7
20260506020108 14 0 0.0 4.8 0.00 0.00 0.00 83 1016.5
20260506020002 16 54 0.0 0.0 0.00 0.00 0.00 68 1014.7
20260506014609 14 178 3.2 11.3 0.00 0.00 0.00 83 1016.4
20260506014501 17 36 0.0 0.0 0.00 0.00 0.00 67 1014.7
20260506013056 14 309 1.6 11.3 0.00 0.00 0.00 83 1016.5
20260506013001 17 36 0.0 0.0 0.00 0.00 0.00 67 1014.7
20260506011622 14 205 8.0 16.1 0.00 0.00 0.00 83 1016.5
20260506011610 17 36 0.0 0.0 0.00 0.00 0.00 67 1014.6
20260506010100 17 273 0.0 1.6 0.00 0.00 0.00 67 1014.6
20260506010059 14 225 8.0 12.9 0.00 0.00 0.00 83 1016.5
20260506004604 14 183 6.4 14.5 0.00 0.00 0.00 83 1016.4
20260506004559 17 47 0.0 1.6 0.00 0.00 0.00 67 1014.7
20260506003059 17 47 0.0 4.8 0.00 0.00 0.00 66 1014.5
20260506003056 14 226 8.0 14.5 0.00 0.00 0.00 83 1016.1
20260506001558 17 31 1.6 4.8 0.00 0.00 0.00 66 1014.4
20260506001556 14 190 8.0 20.9 0.00 0.00 0.00 82 1016.2
20260506000119 14 213 11.3 19.3 0.00 0.00 0.00 81 1016.2
20260506000101 17 31 0.0 1.6 0.00 0.00 0.00 66 1014.3
20260505234558 17 31 0.0 3.2 0.00 0.00 0.00 67 1014.3
20260505234555 13 196 9.7 22.5 0.00 0.00 0.00 81 1016.1